| time (UTC) | temp C | wind direction | speed KPH | gust KPH | rain 1hr cm | rain 24hr cm | rain mn cm | humidity % | barometer mb |
| 20260506123054 | 18 | 215 | 0.0 | 8.0 | 0.00 | 0.00 | 0.00 | 75 | 1008.4 |
| 20260506122548 | 18 | 221 | 1.6 | 6.4 | 0.00 | 0.00 | 0.00 | 75 | 1008.4 |
| 20260506122045 | 18 | 221 | 0.0 | 4.8 | 0.00 | 0.00 | 0.00 | 76 | 1008.3 |
| 20260506121550 | 18 | 222 | 1.6 | 8.0 | 0.00 | 0.00 | 0.00 | 76 | 1008.4 |
| 20260506121045 | 18 | 227 | 1.6 | 8.0 | 0.00 | 0.00 | 0.00 | 76 | 1008.5 |
| 20260506120547 | 18 | 0 | 3.2 | 8.0 | 0.00 | 0.00 | 0.00 | 75 | 1008.2 |
| 20260506120105 | 18 | 207 | 3.2 | 8.0 | 0.00 | 0.00 | 0.00 | 76 | 1008.4 |
| 20260506115544 | 18 | 219 | 1.6 | 6.4 | 0.00 | 0.00 | 0.00 | 76 | 1008.4 |
| 20260506115045 | 18 | 219 | 1.6 | 8.0 | 0.00 | 0.00 | 0.00 | 75 | 1008.5 |
| 20260506114556 | 18 | 0 | 3.2 | 9.7 | 0.00 | 0.00 | 0.00 | 75 | 1008.6 |
| 20260506114045 | 18 | 213 | 1.6 | 9.7 | 0.00 | 0.00 | 0.00 | 75 | 1008.6 |
| 20260506113545 | 18 | 202 | 4.8 | 9.7 | 0.00 | 0.00 | 0.00 | 75 | 1008.5 |
| 20260506113054 | 18 | 192 | 3.2 | 8.0 | 0.00 | 0.00 | 0.00 | 75 | 1008.4 |
| 20260506112546 | 18 | 215 | 3.2 | 8.0 | 0.00 | 0.00 | 0.00 | 76 | 1008.1 |
| 20260506112044 | 18 | 133 | 1.6 | 8.0 | 0.00 | 0.00 | 0.00 | 76 | 1008.2 |
| 20260506111554 | 18 | 217 | 1.6 | 8.0 | 0.00 | 0.00 | 0.00 | 76 | 1008.3 |
| 20260506111044 | 18 | 0 | 1.6 | 11.3 | 0.00 | 0.00 | 0.00 | 75 | 1008.3 |
| 20260506110544 | 18 | 0 | 3.2 | 12.9 | 0.00 | 0.00 | 0.00 | 75 | 1008.1 |
| 20260506110057 | 18 | 200 | 3.2 | 12.9 | 0.00 | 0.00 | 0.00 | 75 | 1008.2 |
| 20260506105545 | 18 | 0 | 3.2 | 9.7 | 0.00 | 0.00 | 0.00 | 76 | 1008.2 |
| 20260506105045 | 18 | 229 | 1.6 | 8.0 | 0.00 | 0.00 | 0.00 | 76 | 1008.1 |
| 20260506104556 | 18 | 0 | 1.6 | 8.0 | 0.00 | 0.00 | 0.00 | 76 | 1008.0 |
| 20260506104045 | 18 | 0 | 3.2 | 8.0 | 0.00 | 0.00 | 0.00 | 76 | 1008.2 |
| 20260506103545 | 17 | 202 | 1.6 | 6.4 | 0.00 | 0.00 | 0.00 | 76 | 1008.3 |
| 20260506103059 | 17 | 213 | 0.0 | 4.8 | 0.00 | 0.00 | 0.00 | 77 | 1008.2 |
| 20260506102546 | 17 | 183 | 0.0 | 6.4 | 0.00 | 0.00 | 0.00 | 76 | 1008.1 |
| 20260506102045 | 17 | 0 | 1.6 | 6.4 | 0.00 | 0.00 | 0.00 | 76 | 1008.0 |
| 20260506101557 | 17 | 46 | 0.0 | 4.8 | 0.00 | 0.00 | 0.00 | 76 | 1008.0 |
| 20260506101044 | 17 | 0 | 0.0 | 4.8 | 0.00 | 0.00 | 0.00 | 76 | 1007.9 |
| 20260506100544 | 17 | 219 | 0.0 | 4.8 | 0.00 | 0.00 | 0.00 | 75 | 1008.0 |
| 20260506095544 | 18 | 199 | 1.6 | 8.0 | 0.00 | 0.00 | 0.00 | 74 | 1007.9 |
| 20260506095045 | 18 | 221 | 0.0 | 8.0 | 0.00 | 0.00 | 0.00 | 74 | 1007.9 |
| 20260506094551 | 18 | 223 | 0.0 | 8.0 | 0.00 | 0.00 | 0.00 | 74 | 1007.8 |
| 20260506094045 | 18 | 202 | 1.6 | 8.0 | 0.00 | 0.00 | 0.00 | 73 | 1007.7 |
| 20260506093541 | 18 | 215 | 3.2 | 11.3 | 0.00 | 0.00 | 0.00 | 73 | 1008.0 |
| 20260506093051 | 18 | 209 | 3.2 | 11.3 | 0.00 | 0.00 | 0.00 | 73 | 1008.1 |
| 20260506092545 | 17 | 218 | 3.2 | 8.0 | 0.00 | 0.00 | 0.00 | 73 | 1008.1 |
| 20260506092045 | 17 | 209 | 3.2 | 8.0 | 0.00 | 0.00 | 0.00 | 73 | 1008.0 |
| 20260506091551 | 17 | 215 | 3.2 | 8.0 | 0.00 | 0.00 | 0.00 | 73 | 1008.0 |
| 20260506091045 | 17 | 211 | 3.2 | 6.4 | 0.00 | 0.00 | 0.00 | 73 | 1007.9 |
| 20260506090545 | 17 | 214 | 1.6 | 4.8 | 0.00 | 0.00 | 0.00 | 73 | 1007.9 |
| 20260506090052 | 17 | 214 | 1.6 | 4.8 | 0.00 | 0.00 | 0.00 | 72 | 1007.8 |
| 20260506085545 | 17 | 227 | 0.0 | 4.8 | 0.00 | 0.00 | 0.00 | 71 | 1007.9 |
| 20260506085045 | 17 | 179 | 0.0 | 3.2 | 0.00 | 0.00 | 0.00 | 70 | 1008.1 |
| 20260506084612 | 17 | 0 | 0.0 | 3.2 | 0.00 | 0.00 | 0.00 | 70 | 1008.1 |
| 20260506084045 | 18 | 228 | 1.6 | 3.2 | 0.00 | 0.00 | 0.00 | 69 | 1008.1 |
| 20260506083544 | 18 | 0 | 0.0 | 6.4 | 0.00 | 0.00 | 0.00 | 68 | 1008.0 |
| 20260506083050 | 18 | 0 | 1.6 | 6.4 | 0.00 | 0.00 | 0.00 | 66 | 1008.1 |
| 20260506082544 | 19 | 207 | 3.2 | 12.9 | 0.00 | 0.00 | 0.00 | 66 | 1008.2 |
| 20260506082042 | 19 | 200 | 4.8 | 12.9 | 0.00 | 0.00 | 0.00 | 66 | 1008.1 |
| 20260506081554 | 18 | 224 | 1.6 | 6.4 | 0.00 | 0.00 | 0.00 | 67 | 1008.1 |
| 20260506081045 | 18 | 209 | 1.6 | 8.0 | 0.00 | 0.00 | 0.00 | 67 | 1008.2 |
| 20260506080541 | 18 | 89 | 1.6 | 8.0 | 0.00 | 0.00 | 0.00 | 67 | 1008.2 |
| 20260506073051 | 19 | 0 | 0.0 | 8.0 | 0.00 | 0.00 | 0.00 | 64 | 1008.2 |
| 20260506072545 | 19 | 211 | 1.6 | 8.0 | 0.00 | 0.00 | 0.00 | 64 | 1008.3 |
| 20260506072044 | 19 | 209 | 1.6 | 6.4 | 0.00 | 0.00 | 0.00 | 63 | 1008.2 |
| 20260506071553 | 19 | 0 | 1.6 | 6.4 | 0.00 | 0.00 | 0.00 | 63 | 1008.2 |
| 20260506071045 | 19 | 223 | 3.2 | 6.4 | 0.00 | 0.00 | 0.00 | 64 | 1008.1 |
| 20260506070545 | 19 | 219 | 1.6 | 6.4 | 0.00 | 0.00 | 0.00 | 64 | 1008.1 |
| 20260506062044 | 20 | 211 | 3.2 | 11.3 | 0.00 | 0.00 | 0.00 | 61 | 1008.7 |
| 20260506061548 | 20 | 216 | 3.2 | 11.3 | 0.00 | 0.00 | 0.00 | 61 | 1008.7 |
| 20260506061045 | 20 | 235 | 3.2 | 8.0 | 0.00 | 0.00 | 0.00 | 60 | 1008.8 |
| 20260506060543 | 20 | 236 | 3.2 | 8.0 | 0.00 | 0.00 | 0.00 | 60 | 1008.5 |
| 20260506051044 | 20 | 209 | 3.2 | 9.7 | 0.00 | 0.00 | 0.00 | 59 | 1009.0 |
| 20260506050544 | 20 | 215 | 1.6 | 8.0 | 0.00 | 0.00 | 0.00 | 59 | 1009.1 |
| 20260506045045 | 20 | 220 | 1.6 | 8.0 | 0.00 | 0.00 | 0.00 | 58 | 1009.1 |
| 20260506044651 | 20 | 211 | 1.6 | 9.7 | 0.00 | 0.00 | 0.00 | 57 | 1009.2 |
| 20260506044044 | 20 | 186 | 1.6 | 9.7 | 0.00 | 0.00 | 0.00 | 57 | 1009.2 |
| 20260506043544 | 20 | 185 | 1.6 | 6.4 | 0.00 | 0.00 | 0.00 | 57 | 1009.1 |
| 20260506043049 | 20 | 212 | 1.6 | 6.4 | 0.00 | 0.00 | 0.00 | 57 | 1009.1 |
| 20260506042545 | 20 | 211 | 1.6 | 6.4 | 0.00 | 0.00 | 0.00 | 56 | 1009.1 |
| 20260506042044 | 21 | 223 | 0.0 | 8.0 | 0.00 | 0.00 | 0.00 | 56 | 1009.1 |
| 20260506041601 | 21 | 227 | 1.6 | 8.0 | 0.00 | 0.00 | 0.00 | 54 | 1009.1 |
| 20260506041044 | 21 | 0 | 0.0 | 6.4 | 0.00 | 0.00 | 0.00 | 54 | 1009.0 |
| 20260506040548 | 21 | 209 | 1.6 | 8.0 | 0.00 | 0.00 | 0.00 | 53 | 1008.9 |
| 20260506040057 | 21 | 211 | 3.2 | 8.0 | 0.00 | 0.00 | 0.00 | 52 | 1008.8 |
| 20260506035545 | 21 | 214 | 1.6 | 6.4 | 0.00 | 0.00 | 0.00 | 51 | 1008.9 |
| 20260506035046 | 21 | 213 | 1.6 | 8.0 | 0.00 | 0.00 | 0.00 | 52 | 1008.8 |
| 20260506034624 | 21 | 211 | 1.6 | 8.0 | 0.00 | 0.00 | 0.00 | 51 | 1008.8 |
| 20260506034046 | 21 | 213 | 3.2 | 8.0 | 0.00 | 0.00 | 0.00 | 51 | 1008.8 |
| 20260506033544 | 21 | 213 | 0.0 | 9.7 | 0.00 | 0.00 | 0.00 | 52 | 1008.7 |
| 20260506033058 | 21 | 209 | 1.6 | 9.7 | 0.00 | 0.00 | 0.00 | 52 | 1008.7 |
| 20260506032545 | 21 | 225 | 3.2 | 6.4 | 0.00 | 0.00 | 0.00 | 51 | 1008.6 |
| 20260506032045 | 21 | 0 | 1.6 | 6.4 | 0.00 | 0.00 | 0.00 | 52 | 1008.7 |
| 20260506031553 | 21 | 213 | 0.0 | 8.0 | 0.00 | 0.00 | 0.00 | 51 | 1008.7 |
| 20260506031046 | 22 | 213 | 1.6 | 8.0 | 0.00 | 0.00 | 0.00 | 50 | 1008.7 |
| 20260506030544 | 22 | 271 | 1.6 | 8.0 | 0.00 | 0.00 | 0.00 | 50 | 1008.7 |
| 20260506030053 | 22 | 205 | 3.2 | 8.0 | 0.00 | 0.00 | 0.00 | 49 | 1008.8 |
| 20260506025544 | 22 | 205 | 1.6 | 11.3 | 0.00 | 0.00 | 0.00 | 49 | 1008.6 |
| 20260506025048 | 22 | 221 | 3.2 | 11.3 | 0.00 | 0.00 | 0.00 | 49 | 1008.6 |
| 20260506024553 | 22 | 207 | 1.6 | 8.0 | 0.00 | 0.00 | 0.00 | 50 | 1008.7 |
| 20260506024046 | 22 | 214 | 1.6 | 8.0 | 0.00 | 0.00 | 0.00 | 50 | 1008.7 |
| 20260506023546 | 22 | 215 | 1.6 | 6.4 | 0.00 | 0.00 | 0.00 | 49 | 1008.6 |
| 20260506023110 | 22 | 205 | 3.2 | 6.4 | 0.00 | 0.00 | 0.00 | 48 | 1008.6 |
| 20260506022544 | 22 | 194 | 3.2 | 6.4 | 0.00 | 0.00 | 0.00 | 49 | 1008.6 |
| 20260506022044 | 22 | 0 | 0.0 | 19.3 | 0.00 | 0.00 | 0.00 | 47 | 1008.5 |
| 20260506021550 | 23 | 221 | 3.2 | 19.3 | 0.00 | 0.00 | 0.00 | 46 | 1008.6 |
| 20260506021043 | 22 | 202 | 4.8 | 11.3 | 0.00 | 0.00 | 0.00 | 46 | 1008.5 |
| 20260506020546 | 22 | 223 | 1.6 | 12.9 | 0.00 | 0.00 | 0.00 | 46 | 1008.6 |
| 20260506020055 | 22 | 223 | 1.6 | 12.9 | 0.00 | 0.00 | 0.00 | 47 | 1008.4 |
| 20260506015545 | 22 | 227 | 3.2 | 14.5 | 0.00 | 0.00 | 0.00 | 45 | 1008.5 |
| 20260506015045 | 22 | 216 | 1.6 | 14.5 | 0.00 | 0.00 | 0.00 | 45 | 1008.5 |
| 20260506014553 | 23 | 217 | 3.2 | 12.9 | 0.00 | 0.00 | 0.00 | 44 | 1008.5 |
| 20260506014044 | 22 | 219 | 3.2 | 9.7 | 0.00 | 0.00 | 0.00 | 44 | 1008.5 |
| 20260506013544 | 23 | 209 | 1.6 | 9.7 | 0.00 | 0.00 | 0.00 | 44 | 1008.3 |
| 20260506013055 | 23 | 226 | 3.2 | 9.7 | 0.00 | 0.00 | 0.00 | 44 | 1008.3 |
| 20260506012545 | 23 | 217 | 3.2 | 9.7 | 0.00 | 0.00 | 0.00 | 44 | 1008.2 |
| 20260506012048 | 22 | 217 | 3.2 | 14.5 | 0.00 | 0.00 | 0.00 | 44 | 1008.2 |
| 20260506011617 | 23 | 248 | 3.2 | 14.5 | 0.00 | 0.00 | 0.00 | 44 | 1008.0 |
| 20260506011044 | 23 | 205 | 1.6 | 11.3 | 0.00 | 0.00 | 0.00 | 43 | 1008.0 |
| 20260506010544 | 23 | 201 | 3.2 | 8.0 | 0.00 | 0.00 | 0.00 | 44 | 1008.1 |
| 20260506005544 | 22 | 0 | 0.0 | 6.4 | 0.00 | 0.00 | 0.00 | 44 | 1007.8 |
| 20260506005044 | 22 | 0 | 0.0 | 6.4 | 0.00 | 0.00 | 0.00 | 44 | 1007.9 |
| 20260506004626 | 23 | 208 | 0.0 | 6.4 | 0.00 | 0.00 | 0.00 | 43 | 1007.9 |
| 20260506004045 | 23 | 207 | 0.0 | 8.0 | 0.00 | 0.00 | 0.00 | 44 | 1007.7 |
| 20260506003545 | 23 | 0 | 3.2 | 8.0 | 0.00 | 0.00 | 0.00 | 43 | 1007.6 |
| 20260506003109 | 23 | 220 | 1.6 | 6.4 | 0.00 | 0.00 | 0.00 | 43 | 1007.7 |
| 20260506002544 | 23 | 220 | 1.6 | 9.7 | 0.00 | 0.00 | 0.00 | 42 | 1007.6 |
| 20260506002045 | 23 | 211 | 1.6 | 9.7 | 0.00 | 0.00 | 0.00 | 42 | 1007.7 |
| 20260506001554 | 23 | 212 | 3.2 | 9.7 | 0.00 | 0.00 | 0.00 | 42 | 1007.5 |
| 20260506001045 | 23 | 212 | 3.2 | 9.7 | 0.00 | 0.00 | 0.00 | 41 | 1007.4 |
| 20260506000545 | 23 | 216 | 3.2 | 8.0 | 0.00 | 0.00 | 0.00 | 41 | 1007.5 |
| 20260506000053 | 23 | 209 | 3.2 | 8.0 | 0.00 | 0.00 | 0.00 | 43 | 1007.6 |
| 20260505235545 | 23 | 0 | 0.0 | 9.7 | 0.00 | 0.00 | 0.00 | 43 | 1007.4 |
| 20260505235044 | 24 | 207 | 3.2 | 9.7 | 0.00 | 0.00 | 0.00 | 41 | 1007.4 |
| 20260505234614 | 23 | 202 | 3.2 | 9.7 | 0.00 | 0.00 | 0.00 | 42 | 1007.4 |
| 20260505234045 | 23 | 215 | 1.6 | 9.7 | 0.00 | 0.00 | 0.00 | 42 | 1007.3 |
| 20260505233544 | 24 | 269 | 3.2 | 9.7 | 0.00 | 0.00 | 0.00 | 41 | 1007.4 |
| 20260505233052 | 24 | 238 | 4.8 | 9.7 | 0.00 | 0.00 | 0.00 | 40 | 1007.3 |
| 20260505232545 | 24 | 208 | 4.8 | 14.5 | 0.00 | 0.00 | 0.00 | 40 | 1007.2 |
| 20260505232045 | 25 | 211 | 4.8 | 14.5 | 0.00 | 0.00 | 0.00 | 39 | 1007.2 |
| 20260505231551 | 25 | 190 | 4.8 | 12.9 | 0.00 | 0.00 | 0.00 | 39 | 1007.0 |
| 20260505231043 | 25 | 236 | 4.8 | 19.3 | 0.00 | 0.00 | 0.00 | 40 | 1007.0 |
| 20260505230543 | 25 | 213 | 6.4 | 19.3 | 0.00 | 0.00 | 0.00 | 39 | 1006.9 |
| 20260505230049 | 25 | 216 | 3.2 | 12.9 | 0.00 | 0.00 | 0.00 | 39 | 1007.0 |
| 20260505225544 | 25 | 221 | 4.8 | 12.9 | 0.00 | 0.00 | 0.00 | 40 | 1007.0 |
| 20260505225044 | 25 | 248 | 4.8 | 14.5 | 0.00 | 0.00 | 0.00 | 39 | 1006.8 |
| 20260505224551 | 25 | 175 | 4.8 | 19.3 | 0.00 | 0.00 | 0.00 | 38 | 1006.8 |
| 20260505224043 | 25 | 236 | 6.4 | 19.3 | 0.00 | 0.00 | 0.00 | 38 | 1006.6 |
| 20260505223544 | 25 | 200 | 6.4 | 16.1 | 0.00 | 0.00 | 0.00 | 37 | 1006.6 |
| 20260505223049 | 25 | 203 | 4.8 | 16.1 | 0.00 | 0.00 | 0.00 | 38 | 1006.6 |
| 20260505222544 | 25 | 221 | 4.8 | 14.5 | 0.00 | 0.00 | 0.00 | 38 | 1006.5 |
| 20260505222044 | 26 | 222 | 3.2 | 17.7 | 0.00 | 0.00 | 0.00 | 37 | 1006.5 |
| 20260505221549 | 26 | 250 | 4.8 | 17.7 | 0.00 | 0.00 | 0.00 | 37 | 1006.5 |
| 20260505221044 | 25 | 261 | 4.8 | 16.1 | 0.00 | 0.00 | 0.00 | 37 | 1006.5 |
| 20260505220544 | 26 | 229 | 4.8 | 16.1 | 0.00 | 0.00 | 0.00 | 36 | 1006.4 |
| 20260505215544 | 26 | 239 | 4.8 | 16.1 | 0.00 | 0.00 | 0.00 | 36 | 1006.1 |
| 20260505215044 | 26 | 148 | 4.8 | 14.5 | 0.00 | 0.00 | 0.00 | 36 | 1006.1 |
| 20260505214601 | 26 | 217 | 4.8 | 25.7 | 0.00 | 0.00 | 0.00 | 35 | 1005.9 |
| 20260505214044 | 26 | 207 | 4.8 | 25.7 | 0.00 | 0.00 | 0.00 | 36 | 1005.9 |
| 20260505213544 | 26 | 227 | 6.4 | 25.7 | 0.00 | 0.00 | 0.00 | 34 | 1006.1 |
| 20260505213101 | 26 | 222 | 4.8 | 14.5 | 0.00 | 0.00 | 0.00 | 36 | 1006.2 |
| 20260505212543 | 26 | 171 | 4.8 | 17.7 | 0.00 | 0.00 | 0.00 | 35 | 1006.2 |
| 20260505212044 | 26 | 272 | 4.8 | 17.7 | 0.00 | 0.00 | 0.00 | 35 | 1006.0 |
| 20260505211554 | 26 | 208 | 6.4 | 16.1 | 0.00 | 0.00 | 0.00 | 34 | 1005.9 |
| 20260505211044 | 26 | 254 | 4.8 | 12.9 | 0.00 | 0.00 | 0.00 | 35 | 1006.0 |
| 20260505210544 | 26 | 259 | 4.8 | 12.9 | 0.00 | 0.00 | 0.00 | 36 | 1006.0 |
| 20260505210050 | 27 | 244 | 6.4 | 17.7 | 0.00 | 0.00 | 0.00 | 35 | 1006.0 |
| 20260505205544 | 27 | 263 | 8.0 | 17.7 | 0.00 | 0.00 | 0.00 | 34 | 1005.8 |
| 20260505205045 | 27 | 241 | 6.4 | 19.3 | 0.00 | 0.00 | 0.00 | 35 | 1005.6 |
| 20260505204558 | 27 | 212 | 9.7 | 19.3 | 0.00 | 0.00 | 0.00 | 33 | 1005.5 |
| 20260505204046 | 27 | 221 | 6.4 | 14.5 | 0.00 | 0.00 | 0.00 | 35 | 1005.7 |
| 20260505203544 | 27 | 279 | 4.8 | 17.7 | 0.00 | 0.00 | 0.00 | 35 | 1005.7 |
| 20260505203051 | 27 | 245 | 4.8 | 19.3 | 0.00 | 0.00 | 0.00 | 37 | 1005.6 |
| 20260505202545 | 27 | 242 | 6.4 | 19.3 | 0.00 | 0.00 | 0.00 | 38 | 1005.9 |
| 20260505202046 | 27 | 211 | 6.4 | 19.3 | 0.00 | 0.00 | 0.00 | 37 | 1005.7 |
| 20260505201550 | 27 | 300 | 8.0 | 19.3 | 0.00 | 0.00 | 0.00 | 36 | 1005.8 |
| 20260505201044 | 27 | 213 | 6.4 | 20.9 | 0.00 | 0.00 | 0.00 | 36 | 1005.8 |
| 20260505200545 | 26 | 251 | 6.4 | 20.9 | 0.00 | 0.00 | 0.00 | 36 | 1006.0 |
| 20260505200056 | 26 | 250 | 4.8 | 22.5 | 0.00 | 0.00 | 0.00 | 36 | 1006.2 |
| 20260505195545 | 27 | 204 | 8.0 | 22.5 | 0.00 | 0.00 | 0.00 | 35 | 1006.2 |
| 20260505195044 | 27 | 239 | 6.4 | 22.5 | 0.00 | 0.00 | 0.00 | 35 | 1006.1 |
| 20260505194551 | 27 | 195 | 6.4 | 22.5 | 0.00 | 0.00 | 0.00 | 35 | 1006.1 |
| 20260505194046 | 27 | 290 | 6.4 | 19.3 | 0.00 | 0.00 | 0.00 | 35 | 1006.3 |
| 20260505193544 | 27 | 267 | 6.4 | 16.1 | 0.00 | 0.00 | 0.00 | 35 | 1006.2 |
| 20260505193055 | 27 | 203 | 3.2 | 17.7 | 0.00 | 0.00 | 0.00 | 37 | 1006.3 |
| 20260505192544 | 27 | 225 | 4.8 | 17.7 | 0.00 | 0.00 | 0.00 | 37 | 1006.6 |
| 20260505192044 | 27 | 198 | 3.2 | 16.1 | 0.00 | 0.00 | 0.00 | 40 | 1006.5 |
| 20260505191557 | 27 | 215 | 4.8 | 16.1 | 0.00 | 0.00 | 0.00 | 38 | 1006.7 |
| 20260505191044 | 27 | 331 | 6.4 | 17.7 | 0.00 | 0.00 | 0.00 | 37 | 1006.7 |
| 20260505190548 | 27 | 202 | 8.0 | 19.3 | 0.00 | 0.00 | 0.00 | 37 | 1006.6 |
| 20260505190049 | 27 | 269 | 8.0 | 19.3 | 0.00 | 0.00 | 0.00 | 36 | 1006.8 |
| 20260505185544 | 27 | 212 | 6.4 | 19.3 | 0.00 | 0.00 | 0.00 | 37 | 1007.0 |
| 20260505185045 | 27 | 288 | 8.0 | 19.3 | 0.00 | 0.00 | 0.00 | 36 | 1007.0 |
| 20260505184549 | 27 | 226 | 4.8 | 17.7 | 0.00 | 0.00 | 0.00 | 39 | 1007.0 |
| 20260505184046 | 28 | 29 | 6.4 | 19.3 | 0.00 | 0.00 | 0.00 | 38 | 1007.0 |
| 20260505183545 | 27 | 200 | 8.0 | 19.3 | 0.00 | 0.00 | 0.00 | 37 | 1007.1 |
| 20260505183049 | 27 | 289 | 4.8 | 16.1 | 0.00 | 0.00 | 0.00 | 39 | 1007.3 |
| 20260505182544 | 27 | 229 | 8.0 | 20.9 | 0.00 | 0.00 | 0.00 | 38 | 1007.4 |
| 20260505182047 | 27 | 262 | 8.0 | 20.9 | 0.00 | 0.00 | 0.00 | 37 | 1007.4 |
| 20260505181550 | 27 | 272 | 6.4 | 16.1 | 0.00 | 0.00 | 0.00 | 40 | 1007.4 |
| 20260505181043 | 27 | 236 | 4.8 | 16.1 | 0.00 | 0.00 | 0.00 | 40 | 1007.4 |
| 20260505180543 | 27 | 234 | 4.8 | 19.3 | 0.00 | 0.00 | 0.00 | 42 | 1007.6 |
| 20260505180056 | 27 | 227 | 8.0 | 19.3 | 0.00 | 0.00 | 0.00 | 42 | 1007.5 |
| 20260505175544 | 27 | 210 | 6.4 | 19.3 | 0.00 | 0.00 | 0.00 | 41 | 1007.4 |
| 20260505175047 | 27 | 217 | 6.4 | 20.9 | 0.00 | 0.00 | 0.00 | 40 | 1007.4 |
| 20260505174609 | 27 | 225 | 9.7 | 20.9 | 0.00 | 0.00 | 0.00 | 40 | 1007.4 |
| 20260505174044 | 27 | 192 | 6.4 | 16.1 | 0.00 | 0.00 | 0.00 | 43 | 1007.6 |
| 20260505173544 | 27 | 213 | 4.8 | 14.5 | 0.00 | 0.00 | 0.00 | 43 | 1007.5 |
| 20260505173049 | 27 | 210 | 6.4 | 14.5 | 0.00 | 0.00 | 0.00 | 42 | 1007.6 |
| 20260505172544 | 27 | 202 | 3.2 | 16.1 | 0.00 | 0.00 | 0.00 | 44 | 1007.6 |
| 20260505172044 | 26 | 224 | 4.8 | 16.1 | 0.00 | 0.00 | 0.00 | 43 | 1007.7 |
| 20260505171550 | 26 | 198 | 6.4 | 14.5 | 0.00 | 0.00 | 0.00 | 45 | 1007.8 |
| 20260505171045 | 26 | 219 | 4.8 | 12.9 | 0.00 | 0.00 | 0.00 | 44 | 1007.9 |
| 20260505170545 | 26 | 197 | 4.8 | 16.1 | 0.00 | 0.00 | 0.00 | 44 | 1007.9 |
| 20260505170122 | 26 | 333 | 4.8 | 16.1 | 0.00 | 0.00 | 0.00 | 46 | 1007.9 |
| 20260505165544 | 26 | 232 | 6.4 | 12.9 | 0.00 | 0.00 | 0.00 | 45 | 1008.2 |
| 20260505165044 | 26 | 238 | 4.8 | 9.7 | 0.00 | 0.00 | 0.00 | 47 | 1008.2 |
| 20260505164550 | 26 | 237 | 1.6 | 16.1 | 0.00 | 0.00 | 0.00 | 45 | 1008.2 |
| 20260505164044 | 26 | 0 | 4.8 | 16.1 | 0.00 | 0.00 | 0.00 | 45 | 1008.3 |
| 20260505163542 | 25 | 271 | 4.8 | 16.1 | 0.00 | 0.00 | 0.00 | 46 | 1008.3 |
| 20260505163051 | 25 | 282 | 4.8 | 14.5 | 0.00 | 0.00 | 0.00 | 45 | 1008.6 |
| 20260505162543 | 25 | 219 | 6.4 | 12.9 | 0.00 | 0.00 | 0.00 | 46 | 1008.8 |
| 20260505162044 | 25 | 226 | 4.8 | 12.9 | 0.00 | 0.00 | 0.00 | 48 | 1008.7 |
| 20260505161602 | 25 | 204 | 3.2 | 11.3 | 0.00 | 0.00 | 0.00 | 47 | 1008.8 |
| 20260505161045 | 25 | 207 | 4.8 | 11.3 | 0.00 | 0.00 | 0.00 | 48 | 1008.9 |
| 20260505160549 | 25 | 250 | 4.8 | 16.1 | 0.00 | 0.00 | 0.00 | 48 | 1009.0 |
| 20260505153057 | 23 | 292 | 4.8 | 14.5 | 0.00 | 0.00 | 0.00 | 52 | 1009.5 |
| 20260505152543 | 23 | 188 | 4.8 | 14.5 | 0.00 | 0.00 | 0.00 | 50 | 1009.4 |
| 20260505152046 | 23 | 215 | 4.8 | 12.9 | 0.00 | 0.00 | 0.00 | 51 | 1009.4 |
| 20260505151554 | 23 | 248 | 4.8 | 14.5 | 0.00 | 0.00 | 0.00 | 52 | 1009.5 |
| 20260505151044 | 23 | 192 | 6.4 | 16.1 | 0.00 | 0.00 | 0.00 | 54 | 1009.6 |
| 20260505150544 | 23 | 188 | 4.8 | 16.1 | 0.00 | 0.00 | 0.00 | 54 | 1009.5 |
| 20260505140545 | 21 | 223 | 3.2 | 9.7 | 0.00 | 0.00 | 0.00 | 60 | 1009.9 |
| 20260505124549 | 16 | 202 | 3.2 | 9.7 | 0.00 | 0.00 | 0.00 | 74 | 1009.9 |
| 20260505124045 | 16 | 210 | 1.6 | 6.4 | 0.00 | 0.00 | 0.00 | 75 | 1010.0 |
| 20260505123544 | 16 | 211 | 1.6 | 4.8 | 0.00 | 0.00 | 0.00 | 76 | 1009.9 |